[TLELIST] Archives

 

[TLELIST] Current TLEs

July 6th 2023 PDT

HST 1 20580U 90037B 23186.34286705 .00003199 00000-0 16433-3 0 9991 2 20580 28.4684 147.1849 0002439 211.5393 277.6622 15.13400961624470 ISS (ZARYA) 1 25544U 98067A 23187.34555919 .00007611 00000-0 14335-3 0 9996 2 25544 51.6398 233.5611 0000373 12.3897 91.4664 15.49560249404764 CXO 1 25867U 99040B 23189.11203580 .00000394 00000-0 00000+0 0 9998 2 25867 37.4736 194.2057 9051980 264.5386 0.3029 0.37811182 24410 ...Continue Reading

[TLELIST] Current TLEs

July 5th 2023 PDT

HST 1 20580U 90037B 23185.21956671 .00002858 00000-0 14576-3 0 9999 2 20580 28.4683 154.6607 0002533 199.1592 277.8696 15.13393713624302 ISS (ZARYA) 1 25544U 98067A 23186.39436343 -.00058426 00000-0 -10416-2 0 9996 2 25544 51.6383 238.2690 0000361 11.5038 182.6915 15.49507485404611 CXO 1 25867U 99040B 23189.11203580 .00000394 00000-0 00000+0 0 9998 2 25867 37.4736 194.2057 9051980 264.5386 0.3029 0.37811182 24410 ...Continue Reading

[TLELIST] Current TLEs

July 4th 2023 PDT

HST 1 20580U 90037B 23185.21956671 .00002858 00000-0 14576-3 0 9999 2 20580 28.4683 154.6607 0002533 199.1592 277.8696 15.13393713624302 ISS (ZARYA) 1 25544U 98067A 23185.48008605 .00009184 00000-0 16497-3 0 9992 2 25544 51.6400 242.7999 0004789 103.2323 25.8140 15.50638212404474 CXO 1 25867U 99040B 23186.46834681 .00000516 00000-0 00000+0 0 9991 2 25867 37.4771 194.4659 9050047 264.3373 0.2938 0.37811740 24403 ...Continue Reading

[TLELIST] Current TLEs

July 3rd 2023 PDT

HST 1 20580U 90037B 23183.64561456 .00002653 00000-0 13457-3 0 9997 2 20580 28.4679 165.1359 0002606 181.7845 342.9770 15.13384882624075 ISS (ZARYA) 1 25544U 98067A 23184.50613595 .00009258 00000-0 16635-3 0 9990 2 25544 51.6412 247.6276 0004669 98.7421 349.8603 15.50618652404326 CXO 1 25867U 99040B 23186.46809867 .00000516 00000-0 00000+0 0 9999 2 25867 37.4789 194.4752 9050052 264.3277 0.2607 0.37813132 24405 ...Continue Reading

[TLELIST] Current TLEs

July 2nd 2023 PDT

HST 1 20580U 90037B 23182.38938920 .00002761 00000-0 14052-3 0 9993 2 20580 28.4678 173.4967 0002665 168.0945 338.9165 15.13378296623888 ISS (ZARYA) 1 25544U 98067A 23183.49561343 .00009185 00000-0 16521-3 0 9993 2 25544 51.6417 252.6366 0004709 96.9956 106.9485 15.50598580404164 CXO 1 25867U 99040B 23181.18125698 .00000509 00000-0 00000+0 0 9998 2 25867 37.5067 195.1310 9050627 263.8076 0.2681 0.37816111 24381 ...Continue Reading

[TLELIST] Current TLEs

July 2nd 2023 PDT

HST 1 20580U 90037B 23182.38938920 .00002761 00000-0 14052-3 0 9993 2 20580 28.4678 173.4967 0002665 168.0945 338.9165 15.13378296623888 ISS (ZARYA) 1 25544U 98067A 23183.49561343 .00009185 00000-0 16521-3 0 9993 2 25544 51.6417 252.6366 0004709 96.9956 106.9485 15.50598580404164 CXO 1 25867U 99040B 23181.18125698 .00000509 00000-0 00000+0 0 9998 2 25867 37.5067 195.1310 9050627 263.8076 0.2681 0.37816111 24381 ...Continue Reading

[TLELIST] Current TLEs

July 1st 2023 PDT

HST 1 20580U 90037B 23180.12857819 .00003160 00000-0 16234-3 0 9998 2 20580 28.4679 188.5430 0002753 145.1078 260.1817 15.13365683623530 ISS (ZARYA) 1 25544U 98067A 23182.38029799 .00013134 00000-0 23288-3 0 9991 2 25544 51.6419 258.1690 0004718 91.8206 2.1878 15.50581804403993 CXO 1 25867U 99040B 23181.18125698 .00000509 00000-0 00000+0 0 9998 2 25867 37.5067 195.1310 9050627 263.8076 0.2681 0.37816111 24381 ...Continue Reading

[TLELIST] Current TLEs

June 30th 2023 PDT

HST 1 20580U 90037B 23180.12857819 .00003160 00000-0 16234-3 0 9998 2 20580 28.4679 188.5430 0002753 145.1078 260.1817 15.13365683623530 ISS (ZARYA) 1 25544U 98067A 23180.77861337 .00013967 00000-0 24752-3 0 9995 2 25544 51.6422 266.1105 0004651 89.4369 58.0332 15.50537939403744 CXO 1 25867U 99040B 23181.18125698 .00000509 00000-0 00000+0 0 9998 2 25867 37.5067 195.1310 9050627 263.8076 0.2681 0.37816111 24381 ...Continue Reading

[TLELIST] Current TLEs

June 29th 2023 PDT

HST 1 20580U 90037B 23180.12857819 .00003160 00000-0 16234-3 0 9998 2 20580 28.4679 188.5430 0002753 145.1078 260.1817 15.13365683623530 ISS (ZARYA) 1 25544U 98067A 23180.38078696 .00014782 00000-0 26155-3 0 9995 2 25544 51.6415 268.0822 0004621 88.6940 356.6804 15.50528727403685 CXO 1 25867U 99040B 23181.18125698 .00000509 00000-0 00000+0 0 9998 2 25867 37.5067 195.1310 9050627 263.8076 0.2681 0.37816111 24381 ...Continue Reading

[TLELIST] Current TLEs

June 29th 2023 PDT

HST 1 20580U 90037B 23180.12857819 .00003160 00000-0 16234-3 0 9998 2 20580 28.4679 188.5430 0002753 145.1078 260.1817 15.13365683623530 ISS (ZARYA) 1 25544U 98067A 23180.38078696 .00014782 00000-0 26155-3 0 9995 2 25544 51.6415 268.0822 0004621 88.6940 356.6804 15.50528727403685 CXO 1 25867U 99040B 23181.18125698 .00000509 00000-0 00000+0 0 9998 2 25867 37.5067 195.1310 9050627 263.8076 0.2681 0.37816111 24381 ...Continue Reading
  • This mailing list is a public mailing list - anyone may join or leave, at any time.
  • This mailing list is announce-only.

International Space Station (ISS) / Hubble Space Telescope (HST) / Chandra X-Ray Observatory Orbital Data via EMAIL

Privacy Policy:

Private list